Location: Coupvray
(48.8929°N, 2.7967°E)
Time: 21:53:40
(UTC+00:00)

Cosmos 724 - Pass Details

Date: 26 October 2020
Orbit: 851 x 943 km, 65.6° (Epoch: 01 December)

Event Time Altitude Azimuth Distance (km) Brightness Sun altitude
Exits shadow 05:01:38 - 323° (NW) 2,991 6.7 -14.6°
Reaches altitude 10° 05:03:06 10° 332° (NNW) 2,606 6.5 -14.3°
Maximum altitude 05:07:22 19° 17° (NNE) 2,036 6.3 -13.6°
Drops below altitude 10° 05:11:41 10° 62° (ENE) 2,642 7.7 -12.9°
Sets 05:15:03 0° 80° (E) 3,596 9.1 -12.4°
